Tracking 33744 objects as of 12-Apr-2026
HD Live streaming from Space Station
objects crossing your sky now

COSMOS 864

Track COSMOS 864 now!
10-day predictions
COSMOS 864 is classified as:


NORAD ID: 9509
Int'l Code: 1976-108A
Perigee: 965.4 km
Apogee: 1,008.1 km
Inclination: 82.9 °
Period: 104.7 minutes
Semi major axis: 7357 km
RCS: 2.1559 m2 (large)
Launch date: October 29, 1976
Source: Commonwealth of Independent States (former USSR) (CIS)
Launch site: PLESETSK MISSILE AND SPACE COMPLEX (PKMTR)
Your satellite tracking list
Your tracking list is empty




NASA's NSSDC Master Catalog

Two Line Element Set (TLE):
1  9509U 76108A   26102.50840581  .00000040  00000-0  25779-4 0  9995
2  9509  82.9440 198.2759 0029004 330.3155  40.5897 13.75575743481416
Source of the keplerian elements: AFSPC